Location: Ahstedt
(52.2048°N, 10.1060°E)
Time: 20:29:08
(UTC+00:00)

USA 307 - Pass Details

Date: 18 January 2026
Orbit: 495 x 502 km, 54.0° (Epoch: 10 March)

Event Time Altitude Azimuth Distance (km) Brightness Sun altitude
Exits shadow 05:57:41 16° 261° (W) 1,399 4.3 -12.0°
Maximum altitude 05:59:42 22° 222° (SW) 1,122 4.2 -11.7°
Drops below altitude 10° 06:02:45 10° 170° (S) 1,652 5.7 -11.3°
Sets 06:05:07 0° 155° (SSE) 2,443 6.8 -10.9°
